Tracking 31027 objects as of 19-Jul-2025
HD Live streaming from Space Station
objects crossing your sky now

STARLINK-1274

Track STARLINK-1274 now!
10-day predictions
STARLINK-1274 is classified as:


NORAD ID: 45387
Int'l Code: 2020-019AD
Perigee: 510.6 km
Apogee: 513.2 km
Inclination: 53.1 °
Period: 94.7 minutes
Semi major axis: 6882 km
RCS: Unknown
Launch date: March 18, 2020
Source: United States (US)
Launch site: AIR FORCE EASTERN TEST RANGE (AFETR)
Your satellite tracking list
IRIDIUM 134
Track 1 satellite(s)




NASA's NSSDC Master Catalog

Two Line Element Set (TLE):
1 45387U 20019AD  25199.78905203  .00029099  00000-0  13298-2 0  9993
2 45387  53.0603 114.8750 0001929 130.1343 229.9821 15.20356356294776
Source of the keplerian elements: AFSPC